Weather History for White Mountain, AK

Change the Weather History Date:

Thursday, January 24, 2013

  Actual Average (PAKK) Record (PAKK)
Temperature  
Mean Temperature 2 °F -  
Max Temperature 10 °F 7 °F 42 °F (2014)
Min Temperature -6 °F 0 °F -36 °F (2002)
Degree Days  
Heating Degree Days 62    
Moisture  
Dew Point -14 °F    
Average Humidity 44    
Maximum Humidity 62    
Minimum Humidity 36    
Precipitation  
Precipitation 0.00 in - - ()
Sea Level Pressure  
Sea Level Pressure 30.01 in    
Wind  
Wind Speed 13 mph (NNE)    
Max Wind Speed 16 mph    
Max Gust Speed 23 mph    
Visibility 10 miles    
Events      
Averages and records for this station are not official NWS values.
T = Trace of Precipitation, MM = Missing Value Source: NWS Daily Summary

Daily Weather History Graph

Daily Weather History Graph

Search for Another Location

Airport:

Trip Planner

Search our weather history database for the weather conditions in past years. The results will help you decide how hot, cold, wet, or windy it might be!

Date:

Astronomy

Jan. 24, 2013 Rise Set
Actual Time 11:01 AM AKST 5:11 PM AKST
Civil Twilight 9:58 AM AKST 6:14 PM AKST
Nautical Twilight 8:55 AM AKST 7:17 PM AKST
Astronomical Twilight 7:57 AM AKST 8:14 PM AKST
Moon 3:09 PM AKST (1/24) 9:24 AM AKST (1/24)
Length of Visible Light 8h 16m
Length of Day
6h 10m
Waxing Gibbous, 95% of the Moon is Illuminated
Jan 24
Waxing Gibbous
Jan 26
Full
Feb 3
Last Quarter
Feb 9
New
Feb 17
First Quarter

Hourly Weather History & Observations

Time (AKST) Temp. Windchill Dew Point Humidity Pressure Visibility Wind Dir Wind Speed Gust Speed Precip Events Conditions
12:58 AM 10.0 °F -5.2 °F -6.0 °F 48% 29.81 in 10.0 mi NE 12.7 mph 19.6 mph N/A   Clear
1:58 AM 10.0 °F -5.9 °F -7.1 °F 46% 29.81 in 10.0 mi NNE 13.8 mph 21.9 mph N/A   Clear
3:58 AM 9.0 °F -5.9 °F -6.0 °F 51% 29.86 in 10.0 mi NE 11.5 mph - N/A   Clear
4:58 AM 10.0 °F -4.5 °F -6.0 °F 48% 29.87 in 10.0 mi NE 11.5 mph 23.0 mph N/A   Clear
5:58 AM 9.0 °F -7.3 °F -11.9 °F 38% 29.88 in 10.0 mi NE 13.8 mph 23.0 mph N/A   Clear
6:58 AM 9.0 °F -5.1 °F -13.0 °F 36% 29.91 in 10.0 mi NNE 10.4 mph 21.9 mph N/A   Clear
8:58 AM 6.1 °F -10.2 °F -15.0 °F 38% 29.93 in 10.0 mi NNE 12.7 mph 18.4 mph N/A   Clear
9:58 AM 3.9 °F -13.7 °F -15.0 °F 41% 29.95 in 10.0 mi NNE 13.8 mph 19.6 mph N/A   Clear
10:58 AM 1.0 °F -16.6 °F -15.0 °F 47% 29.98 in 10.0 mi North 12.7 mph - N/A   Clear
11:58 AM 3.0 °F -12.5 °F -15.0 °F 43% 30.00 in 10.0 mi North 10.4 mph 18.4 mph N/A   Clear
12:58 PM 3.9 °F -13.0 °F -15.0 °F 41% 30.02 in 9.0 mi North 12.7 mph 19.6 mph N/A   Clear
1:58 PM 3.9 °F -13.0 °F -15.0 °F 41% 30.04 in 9.0 mi NNE 12.7 mph - N/A   Clear
2:58 PM 3.9 °F -14.3 °F -15.0 °F 41% 30.05 in 10.0 mi North 15.0 mph 19.6 mph N/A   Clear
3:58 PM 3.9 °F -10.4 °F -16.1 °F 39% 30.07 in 10.0 mi North 9.2 mph 17.3 mph N/A   Clear
4:58 PM 3.0 °F -14.8 °F -17.0 °F 39% 30.07 in 10.0 mi NNE 13.8 mph 21.9 mph N/A   Clear
5:58 PM 1.9 °F -16.2 °F -17.0 °F 41% 30.08 in 10.0 mi North 13.8 mph 21.9 mph N/A   Clear
6:58 PM 1.9 °F -16.9 °F -18.0 °F 39% 30.10 in 10.0 mi North 15.0 mph 20.7 mph N/A   Clear
7:58 PM 1.9 °F -16.2 °F -18.0 °F 39% 30.10 in 10.0 mi North 13.8 mph 20.7 mph N/A   Clear
8:58 PM -0.9 °F -21.2 °F -17.0 °F 47% 30.15 in 10.0 mi North 16.1 mph - N/A   Clear
9:58 PM -5.1 °F -25.1 °F -18.0 °F 54% 30.17 in 10.0 mi North 13.8 mph - N/A   Clear
10:58 PM -5.1 °F -24.3 °F -17.0 °F 57% 30.17 in 10.0 mi North 12.7 mph - N/A   Clear
11:58 PM -6.0 °F -27.0 °F -16.1 °F 62% 30.19 in 10.0 mi North 15.0 mph - N/A   Clear